Hourly Weather Ldzan

Today, 14 August, Friday

Time Temperature Precipitation Wind Pressure Humidity
00:00 +19°C° 0 mm 3 mps 745 mmHg 59%
01:00 +19°C° 0 mm 3 mps 745 mmHg 62%
02:00 +19°C° 0 mm 3 mps 745 mmHg 64%
03:00 +18°C° 0 mm 3 mps 745 mmHg 66%
04:00 +18°C° 0 mm 3 mps 744 mmHg 68%
05:00 +19°C° 0 mm 3 mps 744 mmHg 67%
06:00 +20°C° 0 mm 3 mps 745 mmHg 65%
07:00 +21°C° 0 mm 3 mps 745 mmHg 63%
08:00 +24°C° 0 mm 3 mps 745 mmHg 57%
09:00 +26°C° 0 mm 3 mps 745 mmHg 51%
10:00 +28°C° 0 mm 4 mps 745 mmHg 45%
11:00 +28°C° 0 mm 4 mps 745 mmHg 43%
12:00 +29°C° 0 mm 4 mps 744 mmHg 40%
13:00 +30°C° 0 mm 3 mps 744 mmHg 38%
14:00 +29°C° 0 mm 3 mps 744 mmHg 38%
15:00 +29°C° 0 mm 3 mps 744 mmHg 39%
16:00 +29°C° 0 mm 3 mps 744 mmHg 40%
17:00 +28°C° 0 mm 3 mps 744 mmHg 46%
18:00 +26°C° 0 mm 3 mps 744 mmHg 51%
19:00 +25°C° 0 mm 3 mps 744 mmHg 57%
20:00 +24°C° 0 mm 3 mps 744 mmHg 59%
21:00 +22°C° 0 mm 3 mps 744 mmHg 61%
22:00 +21°C° 0 mm 3 mps 744 mmHg 62%
23:00 +21°C° 0 mm 3 mps 744 mmHg 65%

Tomorrow, 15 August, Saturday

Time Temperature Precipitation Wind Pressure Humidity
00:00 +21°C° 0 mm 3 mps 744 mmHg 67%
01:00 +20°C° 0 mm 3 mps 744 mmHg 69%
02:00 +20°C° 0 mm 3 mps 744 mmHg 69%
03:00 +20°C° 0 mm 3 mps 744 mmHg 69%
04:00 +20°C° 0 mm 3 mps 744 mmHg 69%
05:00 +20°C° 0 mm 4 mps 744 mmHg 69%
06:00 +20°C° 0 mm 4 mps 744 mmHg 69%
07:00 +20°C° 0 mm 4 mps 745 mmHg 69%
08:00 +21°C° 0 mm 4 mps 745 mmHg 64%
09:00 +23°C° 0 mm 4 mps 745 mmHg 59%
10:00 +25°C° 0 mm 5 mps 745 mmHg 54%
11:00 +25°C° 0 mm 5 mps 745 mmHg 53%
12:00 +26°C° 0 mm 5 mps 745 mmHg 51%
13:00 +26°C° 0 mm 5 mps 745 mmHg 49%
14:00 +26°C° 0 mm 5 mps 745 mmHg 50%
15:00 +26°C° 0 mm 5 mps 745 mmHg 50%
16:00 +26°C° 0 mm 5 mps 745 mmHg 50%
17:00 +25°C° 0 mm 4 mps 745 mmHg 56%
18:00 +23°C° 0 mm 4 mps 745 mmHg 61%
19:00 +21°C° 0 mm 3 mps 745 mmHg 66%
20:00 +20°C° 0 mm 3 mps 745 mmHg 69%
21:00 +20°C° 0 mm 3 mps 745 mmHg 72%
22:00 +19°C° 0 mm 4 mps 746 mmHg 76%
23:00 +18°C° 0 mm 3 mps 746 mmHg 77%

Day after tomorrow, 16 August, Sunday

Time Temperature Precipitation Wind Pressure Humidity
00:00 +17°C° 0 mm 3 mps 745 mmHg 78%
01:00 +17°C° 0 mm 3 mps 745 mmHg 80%
02:00 +16°C° 0 mm 3 mps 745 mmHg 79%
03:00 +16°C° 0 mm 3 mps 745 mmHg 79%
04:00 +14°C° 0 mm 3 mps 745 mmHg 79%
05:00 +15°C° 0 mm 4 mps 745 mmHg 76%
06:00 +17°C° 0 mm 4 mps 745 mmHg 73%
07:00 +18°C° 0 mm 4 mps 745 mmHg 70%
08:00 +20°C° 0 mm 4 mps 746 mmHg 65%
09:00 +22°C° 0 mm 5 mps 746 mmHg 60%
10:00 +25°C° 0 mm 5 mps 746 mmHg 54%
11:00 +25°C° 0 mm 5 mps 746 mmHg 52%
12:00 +26°C° 0 mm 5 mps 745 mmHg 50%
13:00 +27°C° 0 mm 5 mps 745 mmHg 47%
14:00 +27°C° 0 mm 5 mps 745 mmHg 49%
15:00 +27°C° 0 mm 5 mps 745 mmHg 51%
16:00 +26°C° 0 mm 5 mps 744 mmHg 53%
17:00 +25°C° 0 mm 4 mps 744 mmHg 59%
18:00 +22°C° 0 mm 3 mps 744 mmHg 64%
19:00 +21°C° 0 mm 3 mps 744 mmHg 70%
20:00 +20°C° 0 mm 3 mps 744 mmHg 72%
21:00 +20°C° 0 mm 3 mps 744 mmHg 75%
22:00 +19°C° 0 mm 3 mps 744 mmHg 77%
23:00 +19°C° 0 mm 3 mps 744 mmHg 82%

17 August, Monday

Time Temperature Precipitation Wind Pressure Humidity
00:00 +19°C° 0 mm 3 mps 744 mmHg 86%
01:00 +18°C° 0 mm 3 mps 744 mmHg 91%
02:00 +18°C° 0 mm 3 mps 744 mmHg 92%
03:00 +18°C° 0 mm 2 mps 744 mmHg 93%
04:00 +18°C° 0 mm 2 mps 743 mmHg 94%
05:00 +18°C° 0 mm 2 mps 743 mmHg 90%
06:00 +19°C° 0 mm 2 mps 743 mmHg 86%
07:00 +20°C° 0 mm 2 mps 743 mmHg 82%
08:00 +21°C° 0 mm 3 mps 743 mmHg 75%
09:00 +22°C° 0 mm 3 mps 743 mmHg 68%
10:00 +25°C° 0 mm 3 mps 743 mmHg 61%
11:00 +25°C° 0 mm 2 mps 743 mmHg 62%
12:00 +25°C° 0 mm 2 mps 743 mmHg 62%
13:00 +25°C° 0 mm 2 mps 742 mmHg 62%
14:00 +25°C° 0 mm 2 mps 742 mmHg 61%
15:00 +26°C° 0 mm 2 mps 742 mmHg 59%
16:00 +26°C° 0 mm 1 mps 742 mmHg 57%
17:00 +25°C° 0 mm 1 mps 742 mmHg 62%
18:00 +24°C° 0 mm 2 mps 742 mmHg 66%
19:00 +23°C° 0 mm 2 mps 742 mmHg 70%
20:00 +21°C° 0 mm 2 mps 742 mmHg 73%
21:00 +21°C° 0 mm 2 mps 742 mmHg 75%
22:00 +20°C° 0 mm 2 mps 742 mmHg 78%
23:00 +20°C° 0 mm 2 mps 741 mmHg 81%

18 August, Tuesday

Time Temperature Precipitation Wind Pressure Humidity
00:00 +19°C° 0 mm 2 mps 741 mmHg 83%
01:00 +19°C° 0 mm 2 mps 741 mmHg 86%
02:00 +18°C° 0 mm 2 mps 741 mmHg 87%
03:00 +18°C° 0 mm 2 mps 740 mmHg 89%
04:00 +18°C° 0 mm 2 mps 740 mmHg 91%
05:00 +19°C° 0 mm 2 mps 740 mmHg 87%
06:00 +20°C° 0 mm 2 mps 740 mmHg 83%
07:00 +20°C° 0 mm 2 mps 740 mmHg 80%
08:00 +23°C° 0 mm 2 mps 740 mmHg 74%
09:00 +24°C° 0 mm 2 mps 740 mmHg 68%
10:00 +26°C° 0 mm 2 mps 740 mmHg 62%
11:00 +26°C° 0 mm 1 mps 739 mmHg 58%
12:00 +27°C° 0 mm 1 mps 739 mmHg 55%
13:00 +28°C° 0 mm 1 mps 739 mmHg 51%
14:00 +27°C° 0.3 mm 1 mps 739 mmHg 56%
15:00 +26°C° 0.3 mm 2 mps 739 mmHg 60%
16:00 +25°C° 0.3 mm 3 mps 738 mmHg 65%
17:00 +23°C° 2.5 mm 4 mps 738 mmHg 73%
18:00 +21°C° 2.5 mm 5 mps 738 mmHg 82%
19:00 +19°C° 2.5 mm 6 mps 738 mmHg 91%
20:00 +19°C° 3.2 mm 6 mps 739 mmHg 92%
21:00 +19°C° 3.2 mm 6 mps 739 mmHg 93%
22:00 +17°C° 3.2 mm 6 mps 739 mmHg 94%
23:00 +17°C° 1.1 mm 6 mps 739 mmHg 93%

19 August, Wednesday

Time Temperature Precipitation Wind Pressure Humidity
00:00 +17°C° 1.1 mm 5 mps 739 mmHg 93%
01:00 +17°C° 1.1 mm 5 mps 739 mmHg 93%
02:00 +17°C° 0.2 mm 5 mps 739 mmHg 92%
03:00 +17°C° 0.2 mm 5 mps 739 mmHg 92%
04:00 +17°C° 0.2 mm 5 mps 739 mmHg 92%
05:00 +17°C° 0.1 mm 5 mps 739 mmHg 91%
06:00 +17°C° 0.1 mm 5 mps 740 mmHg 89%
07:00 +17°C° 0.1 mm 5 mps 740 mmHg 88%
08:00 +19°C° 0 mm 5 mps 740 mmHg 81%
09:00 +20°C° 0 mm 5 mps 740 mmHg 75%
10:00 +22°C° 0 mm 5 mps 740 mmHg 69%
11:00 +23°C° 0 mm 5 mps 740 mmHg 64%
12:00 +25°C° 0 mm 5 mps 740 mmHg 59%
13:00 +26°C° 0 mm 5 mps 740 mmHg 55%
14:00 +25°C° 0.1 mm 5 mps 739 mmHg 55%
15:00 +25°C° 0.1 mm 5 mps 739 mmHg 56%
16:00 +25°C° 0.1 mm 5 mps 739 mmHg 57%
17:00 +23°C° 0.1 mm 4 mps 739 mmHg 63%
18:00 +22°C° 0.1 mm 4 mps 739 mmHg 68%
19:00 +20°C° 0.1 mm 3 mps 739 mmHg 74%
20:00 +20°C° 0 mm 3 mps 739 mmHg 76%
21:00 +19°C° 0 mm 3 mps 739 mmHg 78%
22:00 +19°C° 0 mm 3 mps 739 mmHg 80%
23:00 +18°C° 0 mm 3 mps 739 mmHg 82%
Show more